Alliance, NE

12:17 PM MDT on March 28, 2017 (GMT -0600)
Alliance Municipal

Weather History for KAIA - February, 2012

Change the Weather History Date:

Tuesday, February 14, 2012

  Actual Average Record
Temperature  
Mean Temperature 30 °F 27 °F  
Max Temperature 50 °F 41 °F 68 °F (1954)
Min Temperature 10 °F 12 °F -22 °F (1936)
Degree Days  
Heating Degree Days 35 38  
Month to date heating degree days 573 552  
Since 1 July heating degree days 4642 4897  
Cooling Degree Days 0 0  
Month to date cooling degree days 0 0  
Year to date cooling degree days 0 0  
Moisture  
Dew Point 18 °F    
Average Humidity 61    
Maximum Humidity 92    
Minimum Humidity 29    
Precipitation  
Precipitation 0.00 in 0.02 in 0.20 in (1900)
Month to date precipitation 0.01 0.18  
Year to date precipitation 0.22 0.36  
Sea Level Pressure  
Sea Level Pressure 29.77 in    
Wind  
Wind Speed 10 mph (West)    
Max Wind Speed 21 mph    
Max Gust Speed 26 mph    
Visibility 10 miles    
Events      
T = Trace of Precipitation, MM = Missing Value Source: NWS Daily Summary

Daily Weather History Graph

Daily Weather History Graph

Search for Another Location

Airport or City:

Trip Planner

Search our weather history database for the weather conditions in past years. The results will help you decide how hot, cold, wet, or windy it might be!

Date:

Astronomy

Feb. 14, 2012 Rise Set
Actual Time 6:49 AM MST 5:22 PM MST
Civil Twilight 6:20 AM MST 5:50 PM MST
Nautical Twilight 5:47 AM MST 6:23 PM MST
Astronomical Twilight 5:15 AM MST 6:56 PM MST
Moon 12:39 AM MST (2/14) 10:26 AM MST (2/14)
Length of Visible Light 11h 30m
Length of Day
10h 33m
Waning Gibbous, 49% of the Moon is Illuminated
Feb 14
Waning Gibbous
Feb 21
New
Feb 29
First Quarter
Mar 8
Full
Mar 14
Last Quarter

Hourly Weather History & Observations

Time (MST) Temp. Windchill Dew Point Humidity Pressure Visibility Wind Dir Wind Speed Gust Speed Precip Events Conditions
12:53 AM 16.0 °F 7.4 °F 14.0 °F 92% 29.78 in 10.0 mi West 5.8 mph - N/A   Clear
1:53 AM 17.1 °F 6.6 °F 14.0 °F 88% 29.78 in 10.0 mi WNW 8.1 mph - N/A   Clear
2:53 AM 15.1 °F - 12.0 °F 88% 29.78 in 10.0 mi North - - N/A   Clear
3:53 AM 12.9 °F 2.6 °F 10.0 °F 88% 29.79 in 10.0 mi West 6.9 mph - N/A   Clear
4:53 AM 12.0 °F 5.9 °F 9.0 °F 88% 29.81 in 10.0 mi WNW 3.5 mph - N/A   Clear
5:53 AM 12.9 °F 3.8 °F 10.0 °F 88% 29.83 in 10.0 mi West 5.8 mph - N/A   Clear
6:53 AM 10.9 °F -1.8 °F 8.1 °F 88% 29.87 in 10.0 mi WSW 9.2 mph - N/A   Clear
7:53 AM 19.9 °F 14.9 °F 17.1 °F 89% 29.86 in 10.0 mi WSW 3.5 mph - N/A   Clear
8:53 AM 30.0 °F 21.7 °F 24.1 °F 79% 29.83 in 10.0 mi West 9.2 mph - N/A   Clear
9:53 AM 39.0 °F 34.8 °F 26.1 °F 60% 29.78 in 10.0 mi WSW 5.8 mph - N/A   Clear
10:53 AM 45.0 °F 42.6 °F 23.0 °F 42% 29.76 in 10.0 mi Variable 4.6 mph - N/A   Clear
11:53 AM 46.0 °F 41.9 °F 21.9 °F 39% 29.74 in 10.0 mi SSW 8.1 mph - N/A   Partly Cloudy
12:53 PM 48.0 °F - 19.9 °F 33% 29.71 in 10.0 mi WSW 12.7 mph - N/A   Clear
1:53 PM 50.0 °F - 19.9 °F 31% 29.68 in 10.0 mi WSW 15.0 mph 24.2 mph N/A   Mostly Cloudy
2:53 PM 46.9 °F - 19.9 °F 34% 29.71 in 10.0 mi West 20.7 mph - N/A   Overcast
3:53 PM 48.0 °F - 21.9 °F 36% 29.70 in 10.0 mi West 19.6 mph - N/A   Mostly Cloudy
4:53 PM 42.8 °F 35.4 °F 21.2 °F 42% 29.66 in 10.0 mi West 15.0 mph - N/A   Mostly Cloudy
5:53 PM 39.9 °F 31.8 °F 23.0 °F 51% 29.75 in 10.0 mi WSW 15.0 mph - N/A   Mostly Cloudy
6:53 PM 37.0 °F 29.3 °F 21.9 °F 54% 29.78 in 10.0 mi WSW 11.5 mph - N/A   Partly Cloudy
7:53 PM 34.0 °F 26.0 °F 21.0 °F 59% 29.78 in 10.0 mi WSW 10.4 mph - N/A   Partly Cloudy
8:53 PM 24.1 °F 13.7 °F 17.1 °F 75% 29.80 in 10.0 mi WSW 10.4 mph - N/A   Clear
9:53 PM 30.0 °F 20.5 °F 21.9 °F 72% 29.78 in 10.0 mi West 11.5 mph - N/A   Clear
10:53 PM 24.1 °F 14.4 °F 19.0 °F 81% 29.80 in 10.0 mi WNW 9.2 mph - N/A   Clear
11:53 PM 19.9 °F 11.1 °F 16.0 °F 85% 29.83 in 10.0 mi NW 6.9 mph - N/A   Clear